Theta_e
329 329 330 331 332 332 333 332 332 333 332 332 332 332 332 332 332 331 331 330 330 329 329 329 329 328 328 329 329 328 325 318 317 317 317 322 325 330 326 325 324 324 324 317 318 318 315 313 311 310 304 303 305 302 304 306 304 303 296 290 290 289 291 293 292 293 293 295 296 296 296 297 295 298 301 303 305 306 308 311 312 319 318 318 320 324 326 326
328 328 327 330 331 332 332 332 332 332 332 332 333 332 332 332 332 331 330 330 330 330 329 330 329 328 329 329 329 327 321 316 314 314 315 328 331 329 326 326 326 323 322 315 316 317 313 312 309 308 301 300 308 303 305 302 305 298 292 291 291 290 294 296 293 295 296 296 299 298 295 298 298 298 298 299 299 302 304 307 311 314 317 320 322 324 325 325
327 327 328 328 329 331 330 332 331 332 332 332 332 332 332 331 331 330 330 330 329 329 329 330 330 329 328 329 327 325 320 314 313 311 318 332 330 328 328 327 324 324 313 311 316 316 314 310 309 305 301 300 300 299 301 299 303 298 294 290 291 295 295 294 294 296 298 299 297 297 296 297 298 297 298 298 298 299 302 308 309 311 314 317 320 323 324 325
326 328 328 328 328 329 331 331 331 331 331 331 332 332 331 331 331 330 330 329 328 329 329 328 328 328 327 327 327 319 316 312 308 313 324 333 331 329 329 325 325 319 315 314 314 312 315 315 313 305 304 299 298 302 299 297 298 296 296 292 293 294 295 296 295 295 295 298 299 299 295 297 297 297 297 296 297 296 297 310 312 313 316 318 320 322 323 323
326 327 328 328 328 329 329 330 330 330 331 331 331 331 330 330 330 330 330 329 328 329 329 328 328 327 327 327 325 316 309 303 304 317 326 332 331 332 328 326 323 315 314 315 316 315 315 312 311 307 308 304 298 297 295 296 299 297 294 295 296 295 295 294 294 295 296 297 298 295 297 297 297 298 295 298 296 295 298 304 312 318 319 319 320 321 322 322
326 327 327 328 328 329 329 330 330 330 330 331 331 330 330 330 330 329 329 329 328 329 329 328 328 326 327 327 318 312 307 292 311 312 333 333 333 332 329 326 322 317 316 313 311 312 310 312 313 308 308 307 300 293 296 296 299 294 294 294 294 294 295 296 296 295 297 297 296 296 298 297 297 296 295 299 297 296 296 303 311 320 322 322 323 322 321 321
325 326 326 326 327 328 329 330 330 330 330 330 330 330 330 330 329 329 329 328 328 328 328 328 327 326 326 324 315 311 305 306 311 316 332 334 334 333 330 326 323 314 311 309 310 309 309 308 311 306 307 308 305 295 296 296 296 296 293 293 295 294 295 295 295 294 295 298 298 298 297 298 295 295 295 297 296 294 295 297 313 321 322 323 321 321 321 322
324 325 324 324 326 326 328 329 329 329 329 330 330 330 330 330 329 328 328 328 328 328 328 327 326 326 324 316 311 306 304 304 312 318 331 332 331 331 327 315 313 312 310 308 308 308 308 305 304 309 309 304 301 297 297 295 295 293 294 294 295 296 294 294 293 294 296 296 295 297 297 296 296 295 294 296 297 297 299 299 317 321 321 321 321 321 321 321
323 323 324 324 325 325 326 328 328 329 329 329 330 330 330 329 328 328 327 328 328 328 327 326 326 325 324 316 309 304 303 313 317 320 330 328 326 327 320 313 312 310 309 309 309 309 308 306 305 312 303 304 308 299 296 293 290 294 296 294 294 295 295 294 295 295 295 296 295 297 296 295 293 296 296 297 297 297 303 305 319 320 320 320 320 321 321 321
323 323 322 324 324 325 326 324 326 329 329 329 329 330 330 329 328 327 327 328 328 327 326 326 325 324 318 313 309 301 310 313 322 327 327 324 325 323 318 315 311 309 308 307 309 309 307 306 305 306 307 308 302 300 296 293 291 294 294 295 295 295 296 296 296 295 295 296 294 296 293 294 294 294 293 295 296 300 306 311 319 319 319 319 320 320 321 321
323 322 323 324 324 325 326 326 327 327 328 329 329 329 329 328 328 327 327 328 327 326 326 325 324 321 314 313 306 302 314 321 319 323 324 324 323 319 317 314 312 309 308 307 307 309 307 308 308 308 309 308 307 302 295 294 294 295 295 294 294 293 296 295 295 293 295 296 293 295 294 293 293 295 291 294 294 305 307 312 316 317 318 319 319 320 320 321
323 323 324 325 324 324 325 326 326 327 328 328 329 329 328 327 327 326 327 327 326 326 325 325 324 318 313 312 306 307 315 318 321 322 323 322 321 320 319 317 312 309 308 305 306 308 308 308 310 307 303 310 303 303 300 296 295 295 294 293 292 293 294 295 294 295 295 296 293 293 294 293 293 292 293 293 296 303 308 310 315 315 316 317 318 319 319 320
322 323 324 324 323 324 325 325 326 326 327 327 328 327 328 327 326 326 326 325 326 325 324 324 320 316 315 306 310 313 316 317 322 321 320 317 314 314 317 315 309 309 309 307 306 309 309 310 309 301 304 306 303 300 299 299 297 295 294 291 292 292 290 293 294 295 295 295 293 295 286 289 293 295 293 292 298 300 305 307 310 312 313 315 315 316 317 318
322 322 324 323 323 324 325 325 326 326 327 327 327 327 327 327 326 326 326 324 326 325 324 321 314 314 314 307 309 314 316 318 321 318 315 314 313 309 312 311 311 309 311 308 308 309 308 309 308 305 309 306 304 304 298 296 295 291 292 293 287 287 285 292 294 294 294 295 294 294 288 287 291 295 295 293 297 302 303 305 306 308 309 311 313 314 315 317
322 322 323 323 323 323 324 325 326 326 326 327 326 326 326 326 326 326 326 325 325 325 322 320 313 315 310 309 312 318 323 321 318 316 313 313 309 307 308 308 308 309 308 309 306 308 309 308 306 303 303 303 307 302 294 291 290 291 290 286 288 287 286 290 293 293 294 295 295 294 287 289 290 292 291 294 295 299 301 301 303 304 306 308 310 312 313 315
322 322 323 323 323 323 324 324 325 325 326 326 326 325 324 325 325 326 326 324 325 323 318 315 311 310 307 305 308 319 316 312 314 318 312 313 310 308 306 305 306 307 307 305 308 307 306 308 303 306 303 306 302 298 292 289 288 290 289 284 284 286 287 289 293 291 292 293 295 292 288 287 292 290 291 292 295 295 296 297 299 300 302 303 306 309 311 312
321 322 322 322 323 323 324 324 324 324 324 324 324 325 323 324 325 326 325 324 320 317 315 311 311 311 302 308 315 308 307 311 314 313 308 307 308 305 304 304 302 302 305 306 306 306 305 303 302 304 304 302 299 296 288 284 284 285 287 285 285 286 285 285 289 292 292 292 292 292 290 289 289 289 291 292 294 293 293 294 297 299 299 300 300 304 308 309
322 322 322 322 322 323 322 323 323 324 324 324 323 322 322 324 325 324 321 317 315 314 311 312 311 309 304 305 301 304 308 306 312 312 306 305 305 305 305 302 301 303 304 302 304 301 302 298 301 297 298 297 296 292 285 282 284 283 286 286 286 286 286 287 287 290 292 292 291 290 289 292 293 290 292 292 291 293 294 294 295 296 297 297 297 299 304 308
321 322 321 322 322 322 322 322 323 323 323 324 324 324 325 324 321 317 312 309 306 302 299 300 303 297 296 300 305 307 308 308 310 308 302 304 304 304 304 304 304 302 298 298 298 299 299 298 299 295 290 292 292 292 288 288 289 288 288 288 286 286 286 286 288 289 293 290 289 288 290 292 293 292 291 292 292 293 294 293 291 292 294 296 296 298 301 306
321 321 321 322 322 322 322 323 323 323 324 322 320 319 315 307 306 303 308 308 305 304 300 305 309 299 299 303 303 306 309 310 305 306 304 304 303 301 302 303 302 301 298 294 295 297 299 292 290 290 292 293 295 294 292 292 292 291 290 290 288 288 287 288 289 290 291 290 289 289 290 291 293 292 292 293 293 292 291 292 292 292 292 294 295 297 300 303
321 321 321 321 321 322 322 323 323 322 322 321 318 311 303 302 297 294 301 304 308 304 302 306 307 297 299 302 303 304 301 302 306 302 302 305 303 302 297 300 297 293 295 296 294 297 297 291 291 294 296 296 295 295 293 292 292 290 289 287 287 288 287 289 291 292 292 291 289 289 288 290 291 290 290 290 291 293 293 292 292 293 293 293 295 296 298 303
321 321 321 321 321 322 323 323 322 322 322 320 315 310 310 310 311 311 307 297 303 304 301 307 308 299 302 305 306 307 304 298 299 301 304 302 300 298 295 297 294 292 294 295 294 292 291 289 293 295 297 297 296 295 293 291 290 289 287 288 286 286 288 289 290 291 291 291 288 286 289 291 292 292 292 289 291 293 294 294 295 294 294 293 293 295 297 298
321 321 321 321 321 322 323 322 321 321 319 315 310 311 310 310 315 315 311 304 300 303 298 305 303 298 299 304 308 307 299 296 295 299 300 300 298 297 297 295 293 293 293 295 290 289 286 290 294 296 297 295 294 294 292 291 290 288 287 285 285 287 287 285 288 289 291 289 287 287 286 289 291 291 291 291 291 293 294 294 294 294 294 294 294 294 297 298
320 321 321 320 321 322 322 322 322 319 315 314 312 311 313 314 315 314 307 297 295 301 299 304 298 299 298 301 305 306 298 297 298 296 303 300 297 297 297 296 293 292 291 293 293 290 289 292 296 297 296 294 292 293 291 289 288 289 289 286 285 287 288 287 287 289 290 290 287 285 286 286 287 289 290 292 293 292 293 293 293 293 293 294 294 293 296 298
320 320 320 320 320 321 321 321 315 314 316 313 308 312 314 315 315 312 301 293 292 293 304 304 302 303 305 304 301 302 297 299 299 301 302 301 296 296 294 296 294 290 292 293 293 291 291 293 296 294 294 293 292 290 291 290 287 288 289 289 288 289 288 287 289 289 287 286 288 289 282 281 282 286 290 293 290 290 292 292 293 294 295 293 293 295 295 296
320 320 320 319 320 320 321 313 312 315 312 307 309 313 314 314 314 309 302 289 285 290 300 294 304 296 307 300 302 298 302 294 298 300 302 300 302 297 293 292 293 289 292 291 291 291 292 293 293 292 292 292 291 290 292 291 288 286 288 290 290 290 289 287 286 287 281 281 286 287 283 277 281 284 288 290 289 290 289 290 293 294 294 293 294 296 295 296
320 319 320 320 320 320 313 306 315 313 306 306 311 313 313 312 308 305 297 285 282 291 292 299 299 298 304 300 299 301 288 291 298 299 300 300 299 298 293 289 290 292 294 293 289 285 292 289 291 292 291 290 289 288 291 291 288 285 291 291 291 290 289 287 288 288 281 284 287 287 284 280 282 286 285 285 286 288 288 289 290 293 294 294 295 295 295 296
319 319 319 320 320 318 315 314 311 308 309 310 313 312 310 307 306 300 293 278 278 297 291 292 299 304 302 301 303 297 293 299 292 295 299 300 297 295 295 289 291 290 293 292 282 292 292 288 289 289 289 288 288 290 293 292 289 288 293 292 291 291 290 289 288 285 284 284 281 281 285 282 277 281 284 284 286 287 287 288 290 292 293 294 295 295 294 295
319 319 319 319 319 319 317 313 311 308 311 313 313 312 309 307 300 295 285 277 289 288 304 293 305 300 297 300 297 293 293 298 292 296 298 299 300 293 290 291 291 292 292 292 287 288 290 292 291 291 290 287 289 291 293 293 289 291 293 294 292 291 289 289 285 285 285 281 279 281 282 278 278 279 282 282 284 286 288 289 290 291 293 294 293 293 294 293
318 318 318 319 316 314 313 314 311 312 313 313 312 311 309 303 296 288 281 273 291 283 294 294 295 293 296 292 292 293 294 290 291 293 297 294 296 295 293 293 291 290 289 291 290 290 291 292 296 291 290 291 291 291 294 293 293 295 294 292 290 286 286 283 283 282 282 277 279 281 281 280 277 281 285 285 285 288 291 289 288 289 290 291 292 293 294 294
319 318 318 317 311 312 312 307 309 313 313 313 311 310 305 294 287 282 276 283 291 287 292 290 289 295 292 290 288 291 291 290 291 295 292 293 291 291 291 290 291 287 283 287 287 288 289 291 291 291 292 292 292 291 292 293 294 294 290 286 289 287 283 283 281 282 277 274 276 278 280 280 276 277 281 285 284 284 288 289 291 292 291 291 291 291 292 293
318 318 318 316 314 315 308 305 310 314 313 312 310 304 298 285 285 279 277 294 283 285 288 288 291 292 291 292 290 288 288 289 292 293 291 291 288 289 289 287 288 282 283 283 283 287 287 287 289 291 293 292 291 290 290 293 293 292 288 288 284 278 280 277 280 277 275 275 279 278 279 281 281 282 284 284 286 288 285 288 291 291 290 289 290 292 293 293
317 317 317 314 313 312 312 312 313 313 312 311 306 301 291 284 277 282 282 287 281 290 287 294 290 290 291 289 286 288 289 288 289 291 292 289 289 287 288 288 289 287 280 284 283 284 284 285 289 290 292 292 293 288 284 286 289 289 287 284 282 276 275 274 272 272 271 276 277 279 281 279 279 282 290 291 294 293 290 288 288 289 290 292 293 292 292 293
317 316 311 312 314 313 312 313 313 313 309 307 301 295 288 281 279 291 283 284 284 290 292 291 290 290 290 286 286 289 285 287 290 289 291 287 288 286 288 288 289 287 284 284 283 283 280 280 286 288 286 292 291 290 290 288 288 289 289 288 283 280 274 272 272 275 277 277 276 278 277 274 277 283 284 289 291 289 287 288 288 289 291 291 291 291 291 291
316 312 312 311 312 312 312 313 313 312 308 303 296 290 282 281 284 282 282 283 286 290 289 292 288 287 286 286 286 289 287 284 287 288 287 287 285 287 286 288 288 288 286 284 283 282 283 282 286 290 290 290 291 293 293 292 290 289 288 288 284 284 283 279 278 277 274 273 275 276 276 277 282 283 286 287 287 289 288 290 291 292 292 291 292 292 293 292
312 309 311 308 308 310 313 313 313 311 306 299 291 284 282 285 282 287 285 290 290 287 288 290 288 286 284 282 286 288 288 287 286 286 285 286 288 286 287 288 288 290 288 285 284 280 282 281 286 288 290 289 290 291 293 293 284 287 287 285 285 288 285 279 278 279 278 275 274 274 277 280 280 287 289 284 287 289 289 290 290 291 291 291 292 293 292 292
307 309 305 307 308 311 312 312 312 308 304 297 288 282 285 283 286 289 291 289 289 291 289 284 284 285 282 282 285 286 287 288 286 286 283 285 285 287 287 288 291 289 291 289 283 283 283 280 285 286 287 290 288 289 292 289 292 288 283 287 289 291 288 283 278 273 271 273 274 274 277 277 278 279 283 284 286 287 287 288 289 290 290 290 292 292 292 292
306 306 306 306 308 311 312 312 310 305 300 293 286 289 283 285 290 290 291 291 291 292 289 287 285 288 284 284 283 286 286 287 284 284 283 286 281 290 288 288 289 291 290 289 289 284 287 280 285 286 286 288 289 292 291 291 291 289 288 293 288 281 281 282 279 273 271 269 268 273 275 275 277 281 281 283 284 288 288 287 287 289 290 291 291 290 289 289
306 304 298 304 309 311 310 310 308 302 295 288 286 284 286 286 290 290 293 293 294 291 288 288 286 287 288 284 285 287 287 283 285 283 282 283 281 286 290 290 287 290 291 289 287 285 287 280 281 285 286 288 288 288 284 285 289 291 289 288 289 287 284 280 281 279 277 272 270 271 274 277 280 279 282 289 288 288 288 286 289 291 292 292 291 292 291 291
303 299 296 307 309 311 311 309 303 298 292 285 286 279 286 287 289 292 294 294 289 291 287 287 289 286 287 286 287 285 286 285 284 283 283 283 285 288 288 292 288 289 290 289 289 290 284 283 278 283 287 286 283 284 284 286 284 285 285 283 285 285 286 285 283 279 279 272 268 269 270 273 279 282 284 288 290 289 288 289 290 290 290 291 291 292 291 292
304 298 297 308 309 310 309 304 296 292 290 288 287 285 287 288 289 291 294 296 293 291 289 290 289 286 287 285 286 288 285 284 286 284 283 283 287 281 288 291 290 288 289 290 289 288 284 283 280 282 283 280 282 285 286 289 291 288 285 284 286 282 281 279 279 280 274 276 273 267 273 275 282 284 287 288 288 286 286 289 290 290 290 291 292 292 292 293
298 291 294 308 309 309 303 294 294 296 291 285 287 286 289 296 289 290 292 292 293 289 291 290 291 289 288 288 288 287 286 284 285 285 284 283 287 285 287 291 292 292 291 287 289 288 286 283 283 279 282 285 285 288 288 288 285 287 289 288 289 286 284 279 277 278 278 277 273 271 272 274 281 283 284 285 285 286 286 286 288 289 289 290 292 293 292 293
297 294 304 307 308 306 299 293 294 292 290 288 289 289 292 290 289 290 291 291 290 289 289 289 289 288 289 289 288 288 288 284 286 285 285 284 285 287 287 291 292 292 293 287 290 288 291 283 280 278 282 283 285 286 287 286 287 287 287 285 287 287 287 284 281 279 280 277 277 275 274 277 281 281 283 284 284 285 285 285 287 288 288 289 291 292 292 293
297 296 298 305 308 306 296 286 286 289 290 289 289 289 291 290 290 289 290 291 290 289 289 287 287 291 289 289 290 287 290 282 286 285 283 284 286 285 285 290 293 291 291 289 290 291 283 282 284 277 275 279 281 283 284 285 285 282 282 284 285 287 286 284 282 281 280 278 279 276 276 276 283 281 281 282 283 285 286 285 286 288 289 289 291 292 291 292
298 300 299 301 305 303 293 293 291 290 290 288 288 287 288 289 290 292 291 290 288 288 289 287 290 291 287 289 289 290 290 287 283 285 283 283 287 286 288 289 294 292 293 292 296 294 288 283 284 278 276 275 273 275 278 279 280 282 283 283 286 287 285 284 281 281 278 277 277 273 275 279 282 282 282 283 282 285 286 285 285 287 289 291 291 292 293 294
294 287 294 296 299 298 297 296 292 292 289 286 285 286 287 288 289 291 293 290 289 289 288 289 288 292 288 289 286 286 287 286 286 283 285 285 285 286 285 286 289 291 291 295 294 293 283 285 286 285 282 281 282 281 285 285 282 283 283 284 285 286 286 287 284 281 282 279 276 280 283 283 283 286 284 287 284 286 287 286 288 289 289 291 292 294 294 295
296 290 291 287 295 295 293 295 292 292 289 291 285 286 287 289 289 290 292 289 291 291 289 291 290 289 287 289 287 286 288 285 283 286 283 285 284 285 285 286 286 289 293 292 293 289 282 283 285 286 285 285 284 285 287 289 286 286 285 284 285 286 285 285 283 283 284 280 280 284 283 282 285 286 287 287 289 286 286 287 288 288 289 293 294 292 293 293
289 293 296 296 290 287 288 290 293 291 291 290 286 288 287 288 289 288 290 290 290 290 290 288 291 291 290 289 288 284 285 284 283 284 283 283 283 284 286 286 287 289 289 288 290 289 285 284 284 284 283 284 284 286 288 289 289 288 287 287 286 286 286 285 285 287 285 283 282 286 284 283 285 286 289 290 291 290 290 290 289 290 290 291 291 292 293 294
292 293 293 297 288 291 292 293 293 291 289 289 286 288 287 289 288 289 288 288 291 289 290 286 288 289 290 291 289 286 286 283 281 283 284 283 284 282 281 285 288 283 286 285 287 280 286 280 282 283 283 284 284 285 287 287 285 285 286 287 288 287 286 287 287 288 287 285 287 287 286 286 288 288 291 291 290 290 287 286 287 288 290 292 292 293 293 293
287 292 288 290 289 292 292 293 291 289 287 290 286 287 289 289 288 288 289 291 288 289 290 290 288 288 290 290 290 286 287 289 288 284 285 287 280 282 285 284 284 284 284 285 287 286 287 279 286 282 281 283 285 286 285 286 285 284 284 286 287 287 287 288 288 288 287 286 287 286 284 285 289 289 290 288 287 288 289 287 288 289 289 292 293 294 294 294
287 287 289 291 287 290 292 291 290 288 286 286 284 286 287 289 289 291 288 289 293 290 290 290 289 289 290 290 289 289 291 290 290 290 290 291 286 287 288 284 288 287 284 285 285 286 286 278 281 280 279 277 281 284 285 284 283 282 282 284 285 284 283 285 284 286 284 285 286 285 284 285 287 286 289 291 289 289 289 290 290 289 289 292 293 294 295 295
289 291 291 292 284 291 289 291 290 288 284 288 287 286 287 289 288 290 288 289 288 291 292 292 291 291 288 289 288 291 292 292 293 294 294 295 295 292 289 290 292 290 287 288 285 286 285 281 280 278 278 275 277 278 280 282 283 281 283 285 285 286 287 287 288 288 288 289 285 283 285 289 287 289 291 289 288 290 291 292 291 289 290 293 294 295 295 296
Wind_Speed
21 22 26 26 26 25 25 27 27 25 25 24 21 22 24 24 22 21 21 17 19 20 17 17 17 17 14 13 13 12 9 6 3 2 3 0 6 10 10 7 3 5 5 4 5 6 6 7 8 11 6 5 2 3 1 1 0 1 1 3 1 4 2 4 5 8 3 7 6 5 5 9 5 1 2 4 9 5 2 5 2 4 5 1 1 10 14 10
21 25 26 28 27 26 25 26 28 26 25 25 25 22 24 25 23 21 21 18 17 15 18 16 16 15 14 13 13 9 9 4 5 5 6 8 15 13 11 8 5 3 5 6 9 7 8 4 6 7 4 3 1 2 2 1 0 2 1 2 7 4 5 5 2 6 4 5 11 7 5 6 7 8 3 6 1 3 4 2 3 4 5 6 8 11 14 11
24 26 23 22 24 24 25 25 28 28 26 26 26 23 21 22 22 21 20 19 20 20 18 15 15 15 17 15 12 11 10 3 2 7 4 15 15 14 12 9 4 4 3 9 1 10 8 7 3 2 3 2 3 1 3 2 0 3 3 4 5 6 3 4 4 6 5 5 6 8 6 4 7 3 1 5 7 2 8 6 0 3 5 7 7 11 12 11
25 25 23 23 22 23 26 27 27 28 25 24 22 22 21 20 21 20 19 19 20 19 18 18 18 17 16 16 13 5 7 5 4 2 6 16 18 15 11 9 12 11 12 10 7 10 9 7 6 4 1 2 4 1 1 2 1 2 1 4 3 3 0 3 2 2 5 5 13 8 4 5 5 4 3 6 8 4 4 7 10 10 11 10 11 13 12 12
24 26 25 28 27 24 23 25 25 25 26 26 25 22 20 21 21 21 20 20 20 19 18 18 18 17 17 15 12 6 7 3 4 5 11 17 19 18 16 15 9 4 11 11 12 9 8 8 3 3 3 1 3 3 2 2 2 1 6 5 5 0 1 8 3 2 2 4 5 7 11 8 3 1 5 13 10 9 10 10 6 15 15 15 14 12 11 13
25 25 25 26 29 25 25 26 25 21 23 24 26 25 23 21 21 20 21 22 20 19 19 19 17 17 16 14 7 6 8 7 3 4 19 20 18 19 18 14 11 10 12 7 8 9 11 3 6 3 2 3 1 1 5 1 2 4 4 3 5 3 2 2 2 2 5 4 5 9 7 6 7 3 5 12 9 5 5 8 10 13 17 16 16 15 13 13
24 24 23 24 22 27 26 25 28 31 30 27 25 25 24 24 21 21 21 22 21 20 20 18 17 17 14 9 4 7 9 3 1 3 24 21 20 18 18 14 11 9 8 11 10 8 4 8 5 4 4 1 2 2 3 6 5 4 7 1 3 2 5 2 1 3 2 10 11 3 5 8 7 6 3 7 5 3 3 5 10 10 9 11 13 13 17 17
25 26 27 28 26 26 26 26 28 29 30 30 26 25 25 23 22 22 21 22 22 21 20 20 18 15 13 6 6 6 5 6 2 1 18 22 19 18 16 9 10 6 10 13 10 10 10 10 9 4 2 8 2 3 5 9 3 3 4 4 3 0 2 3 2 2 3 2 1 4 7 8 8 5 5 7 6 3 0 5 9 10 11 11 13 14 13 13
25 24 25 28 27 28 29 27 26 28 27 26 28 26 26 25 23 22 21 22 22 21 21 20 18 15 9 5 5 7 8 0 1 4 15 15 16 16 15 7 5 8 6 7 7 12 8 3 5 2 6 7 1 2 5 6 7 1 6 3 1 1 0 1 3 1 4 2 4 5 2 1 3 1 5 6 5 2 3 9 12 12 12 13 13 15 14 13
26 26 25 25 28 29 27 25 25 28 27 26 26 27 27 25 24 23 23 22 22 21 20 20 18 15 6 6 5 7 2 4 3 9 12 12 14 15 11 14 12 9 10 6 6 8 4 8 10 4 9 3 3 2 4 3 7 4 8 7 6 3 1 1 0 1 1 3 3 7 2 2 2 2 5 3 5 3 6 9 11 14 14 14 12 12 12 14
28 28 29 27 26 26 25 29 33 30 28 26 26 26 26 24 23 23 21 22 21 21 20 20 18 10 6 6 11 9 2 3 0 8 14 15 13 13 9 11 10 10 12 8 8 3 6 13 11 7 4 3 1 4 3 5 3 9 8 2 1 2 0 0 0 3 0 1 1 6 2 1 2 1 6 5 4 6 11 9 11 12 13 13 12 12 11 12
29 30 30 28 25 25 22 22 28 32 30 28 26 27 26 25 24 23 22 21 20 21 20 18 17 6 3 6 8 4 5 1 2 7 11 14 14 13 11 13 9 9 12 10 5 3 6 10 10 7 6 4 3 3 8 3 5 9 1 5 3 2 2 2 5 2 0 2 4 4 3 1 1 6 6 5 6 5 10 11 12 11 11 11 11 10 9 12
30 30 31 27 27 27 27 25 24 24 27 27 27 27 26 25 24 24 23 21 21 19 18 16 6 2 8 5 3 1 3 2 3 8 8 4 5 5 5 6 4 6 4 14 7 4 5 5 6 13 3 7 4 5 3 9 11 7 3 3 1 1 3 5 1 1 1 1 2 3 5 7 11 11 6 1 7 5 5 9 10 9 9 9 9 10 10 8
32 31 31 29 29 29 28 28 27 28 28 27 26 27 26 25 25 24 23 21 22 19 14 7 2 3 8 2 1 2 4 1 5 9 9 7 11 4 6 2 2 4 5 12 6 5 6 3 8 9 2 7 2 4 10 6 3 3 4 2 4 3 5 1 4 3 3 1 1 1 6 7 7 10 8 2 5 11 9 8 9 8 8 8 9 9 10 10
33 33 31 30 30 30 32 31 29 29 27 26 27 27 27 27 24 23 22 21 20 19 15 7 3 7 5 1 2 4 1 4 7 8 9 14 11 7 7 2 4 8 4 9 5 2 6 7 9 6 4 1 3 4 7 4 4 3 1 5 0 5 4 3 1 6 8 0 1 3 4 8 6 9 5 6 7 7 10 8 9 8 8 9 8 10 10 11
34 33 32 31 31 32 33 33 32 30 29 27 26 26 26 26 25 23 21 18 20 20 8 8 1 2 7 5 1 1 3 5 9 7 3 6 12 12 11 6 7 10 9 3 5 5 4 6 6 3 4 3 7 3 6 7 5 2 4 2 3 2 4 1 3 3 5 3 0 4 5 2 6 5 3 5 11 9 9 8 8 9 9 9 9 9 9 8
34 33 32 32 32 31 33 34 36 33 31 28 27 27 26 25 26 23 22 21 13 6 4 6 3 0 7 2 1 4 4 3 4 3 2 0 4 12 12 9 5 8 8 5 7 6 2 4 0 3 3 5 6 4 3 7 7 5 0 3 3 6 2 2 3 2 2 4 5 2 2 6 3 4 2 3 8 8 8 9 10 10 9 9 8 7 8 9
34 33 32 31 31 31 31 32 35 36 33 32 29 27 25 27 27 27 19 13 8 6 5 5 2 6 6 1 8 9 4 6 8 8 4 1 6 11 12 5 5 12 11 8 4 6 2 4 1 6 3 5 9 9 10 13 8 2 1 3 2 1 3 4 5 4 5 1 6 3 5 10 9 3 2 4 4 7 10 11 11 11 9 8 7 8 9 10
34 33 32 32 31 30 30 32 30 29 34 33 32 31 31 30 15 9 14 11 12 5 5 6 10 13 9 18 4 9 6 7 7 11 5 7 4 3 3 4 13 14 8 9 3 8 0 4 3 5 11 12 15 15 10 4 5 6 6 5 2 4 3 3 5 2 9 5 6 6 9 11 13 8 4 4 4 7 10 5 4 6 6 7 8 9 9 10
34 33 32 32 32 31 30 32 33 30 36 30 24 20 14 9 8 7 5 13 13 16 4 17 14 4 7 14 8 4 7 7 12 7 6 3 11 6 7 9 5 5 11 9 6 7 3 10 12 16 14 12 11 12 7 8 10 5 4 2 6 6 4 3 3 2 1 3 7 7 9 10 11 8 6 4 1 3 5 7 8 7 8 9 9 10 12 11
34 33 34 32 31 32 32 32 33 30 31 25 27 21 17 21 24 14 16 13 13 7 4 14 9 2 3 8 10 19 14 6 5 8 8 4 7 14 7 9 8 7 6 9 10 2 4 8 13 8 8 13 13 11 9 10 11 5 6 5 7 3 6 4 3 0 0 5 5 7 6 10 11 7 6 1 3 9 10 10 8 10 9 10 11 12 11 14
34 34 35 34 32 33 33 34 34 33 25 16 21 14 12 17 6 12 22 11 4 6 5 15 7 2 3 9 14 13 9 7 5 5 3 5 10 12 6 8 11 12 5 9 7 6 9 13 6 3 4 6 9 11 8 7 9 4 6 5 4 7 3 5 1 1 0 2 7 1 6 11 12 10 6 4 8 8 10 11 13 13 10 10 10 11 11 6
35 35 36 36 34 36 35 36 35 33 16 13 13 7 13 2 17 14 13 12 7 3 2 13 7 4 8 5 4 8 19 13 16 12 10 5 12 7 12 10 11 10 9 12 13 8 7 11 7 6 7 10 11 10 9 8 5 5 4 4 6 3 4 6 2 1 0 3 2 3 5 8 8 6 7 7 8 8 8 10 11 8 13 14 14 14 12 13
34 36 35 36 36 36 36 37 35 26 18 19 10 7 6 12 19 20 20 8 6 1 0 4 2 4 9 12 6 11 16 7 10 15 8 8 14 9 10 14 13 10 12 14 13 14 10 5 7 9 10 12 13 13 10 9 9 3 5 4 5 2 5 5 5 1 0 0 2 2 2 6 5 7 6 6 10 8 6 6 8 9 9 8 5 5 10 15
36 36 36 35 36 38 33 38 22 19 20 10 2 6 11 15 17 20 23 8 5 2 2 2 5 3 5 3 4 9 2 1 7 11 9 12 8 7 6 5 7 10 12 12 8 6 7 6 15 13 14 12 11 13 13 7 8 6 5 9 10 8 6 3 1 5 1 3 3 2 2 7 5 8 12 10 3 6 8 8 11 13 12 8 8 13 11 9
41 38 37 36 36 35 38 21 19 18 20 11 8 10 12 15 15 12 16 5 5 1 5 9 5 5 1 3 9 3 12 4 1 6 7 6 2 9 6 7 3 12 11 12 8 4 8 5 14 15 15 13 12 11 11 7 7 6 6 7 12 9 6 4 5 4 3 5 3 1 9 7 4 5 8 10 8 11 3 6 12 11 11 9 12 13 11 12
35 43 39 37 36 36 23 11 15 18 18 8 10 12 13 12 4 5 11 5 3 4 11 1 5 4 3 8 7 12 12 9 2 4 5 3 9 1 14 6 4 3 6 5 3 6 7 6 12 12 13 13 12 13 11 9 7 9 2 2 4 4 5 7 9 8 4 1 1 1 3 5 8 8 5 2 3 8 8 8 11 11 11 11 13 13 10 11
32 37 39 41 39 38 17 17 21 19 15 14 16 16 8 5 2 4 7 8 5 9 6 2 1 1 1 5 7 9 1 14 7 5 2 1 2 1 7 11 11 15 11 9 11 1 13 7 13 12 10 10 13 7 6 8 6 3 3 6 5 6 8 8 7 6 1 3 6 2 1 1 6 7 4 1 3 6 10 10 13 14 14 15 15 13 12 12
33 36 38 41 44 18 10 19 25 21 10 14 11 11 3 2 3 7 5 8 2 3 2 12 1 5 4 7 7 1 4 6 7 9 2 1 2 3 7 8 6 12 9 12 10 2 2 10 13 13 10 11 5 9 10 8 6 6 2 3 3 4 4 3 5 5 0 2 7 5 4 4 7 6 4 1 2 7 9 11 14 16 17 15 13 11 11 7
38 38 37 39 23 13 11 12 13 11 17 13 12 10 6 2 7 8 7 6 6 5 6 2 8 15 13 15 6 3 12 2 2 5 5 5 2 1 1 2 6 8 7 2 5 4 1 5 1 5 10 6 7 8 12 8 5 3 6 3 2 6 2 3 4 2 2 4 7 5 3 3 5 5 8 6 7 8 10 7 5 6 8 10 11 11 10 9
41 38 37 32 18 13 18 14 12 14 16 16 14 14 9 6 8 8 13 5 6 2 3 6 4 8 15 17 11 3 5 3 6 14 7 1 1 1 3 3 3 5 3 2 4 3 2 1 3 2 2 2 4 4 2 3 2 5 3 4 3 1 4 2 1 2 3 6 6 2 3 3 7 4 5 8 4 4 5 7 10 9 9 10 8 8 8 7
41 40 41 22 11 15 21 19 17 18 17 17 17 14 11 11 3 7 5 6 10 9 14 12 7 13 19 16 10 8 9 4 7 15 16 12 9 10 10 10 9 8 8 9 8 1 0 3 1 2 2 6 5 5 3 2 3 4 3 5 7 3 1 4 0 4 5 6 0 0 2 1 10 7 8 6 8 8 6 8 9 8 8 6 6 7 6 6
38 38 35 16 18 11 11 15 18 17 19 20 16 10 9 12 15 7 7 13 3 18 9 13 17 18 17 12 6 5 1 11 4 8 10 5 9 6 4 6 7 7 8 7 5 4 5 1 1 2 2 4 6 11 4 6 4 6 7 6 7 5 4 5 3 1 4 6 4 1 0 4 3 5 13 15 17 12 6 8 9 7 8 8 6 5 5 5
37 33 18 12 13 12 17 18 16 21 22 17 15 11 3 9 10 4 10 9 8 4 15 11 13 10 15 13 9 9 5 2 11 8 11 7 9 11 9 6 10 6 4 4 10 10 8 5 6 5 2 2 3 5 8 4 6 7 3 8 5 5 3 4 3 6 8 8 1 3 1 6 5 4 3 10 10 9 6 8 6 5 6 4 1 1 1 3
37 23 16 11 12 13 18 18 18 20 18 15 13 13 18 12 6 15 11 5 7 11 13 15 17 15 12 5 2 4 3 4 3 8 9 13 13 13 15 12 5 6 4 11 5 3 10 2 2 2 1 0 7 1 3 8 4 3 3 4 6 10 5 5 5 3 2 1 1 1 6 4 5 3 7 5 7 7 3 4 2 5 2 2 2 4 5 5
24 11 15 9 13 11 19 16 20 18 19 15 12 11 16 13 13 11 10 9 13 15 18 18 13 17 9 4 1 10 4 6 7 6 5 9 9 11 6 6 10 10 10 10 4 3 3 5 1 6 1 0 2 1 3 4 8 3 4 7 4 2 6 3 2 0 1 3 6 2 5 6 8 9 9 3 4 7 2 2 2 4 3 2 6 5 5 4
14 13 12 12 13 12 14 19 16 16 15 16 14 14 7 2 1 7 8 20 16 24 20 20 12 15 12 11 11 11 6 5 9 9 9 4 3 10 10 8 8 7 7 9 1 2 10 3 1 3 3 0 1 0 2 2 2 7 5 8 2 1 3 4 5 2 1 5 7 2 6 5 1 7 4 5 2 9 5 4 3 3 2 5 6 5 5 5
14 11 15 15 14 13 12 16 18 13 12 13 15 10 1 4 1 12 9 16 16 18 17 16 7 11 17 17 15 18 7 13 12 7 8 14 5 7 10 8 6 11 6 2 8 3 6 2 1 0 0 5 2 0 1 1 2 4 7 6 7 5 7 1 2 4 2 4 4 2 2 4 6 7 5 4 4 9 9 4 3 5 5 7 7 6 5 4
13 15 9 7 5 14 12 16 14 15 12 10 10 7 3 3 4 13 17 19 17 19 20 13 16 8 14 12 10 9 11 12 12 8 10 8 8 7 19 8 5 7 10 7 4 2 1 5 2 1 2 1 1 2 9 2 2 1 3 3 1 2 3 3 7 2 4 5 0 8 1 6 6 6 8 11 9 8 6 4 9 11 10 8 7 6 6 5
16 9 5 6 9 11 13 14 12 11 9 17 12 3 2 4 3 17 17 23 9 14 6 11 9 15 11 9 16 15 8 6 13 6 3 2 6 2 10 9 8 8 10 5 4 4 3 2 4 1 1 2 2 2 5 8 6 2 2 3 1 0 2 2 1 4 5 5 4 3 4 4 7 8 7 11 12 9 4 8 9 8 7 8 6 6 6 6
6 9 7 7 12 13 15 12 12 16 16 2 0 2 1 4 7 11 22 21 12 2 7 14 14 13 14 12 12 9 7 7 11 9 6 4 12 3 7 12 10 9 5 1 5 3 2 2 6 1 2 3 5 3 5 9 10 8 7 7 9 6 4 6 10 2 2 2 5 3 7 6 10 3 8 10 6 4 5 7 9 9 8 8 7 6 6 6
14 10 5 9 14 19 19 16 11 11 5 9 12 3 2 7 9 12 10 6 12 5 3 7 11 11 12 13 17 12 8 9 10 10 6 9 11 1 6 11 13 15 13 11 13 3 6 3 8 5 7 9 6 1 1 0 3 4 8 10 9 5 4 4 7 5 2 2 4 3 1 8 6 3 5 6 5 5 5 4 9 6 6 7 7 7 6 5
8 6 8 14 15 20 16 14 11 10 8 5 4 3 1 5 9 10 13 7 4 3 7 7 12 11 9 12 11 13 17 8 15 14 6 4 5 5 7 14 12 15 13 2 5 2 8 4 5 2 2 2 4 3 1 1 2 3 5 2 6 11 8 5 3 5 6 1 2 2 6 7 4 2 4 5 6 7 6 4 7 6 5 5 6 6 5 5
10 14 8 2 4 11 14 14 14 12 8 0 2 3 3 3 10 11 9 10 6 6 8 5 4 8 12 6 13 16 15 6 7 7 3 5 7 4 3 14 19 12 15 11 15 9 4 3 9 3 2 2 5 4 3 1 2 1 2 2 1 0 3 2 5 2 3 6 6 5 13 3 4 3 4 3 4 5 6 4 4 5 5 5 6 5 4 4
11 6 7 5 3 8 14 5 10 16 16 12 10 5 3 4 5 13 13 9 2 6 7 6 10 8 3 7 12 10 14 9 6 4 3 3 2 1 2 12 19 13 11 7 8 8 7 5 9 8 12 10 6 11 13 7 5 2 2 2 3 6 6 4 5 2 7 2 4 4 8 7 9 5 4 5 4 6 6 6 4 4 4 5 5 4 4 5
11 15 5 5 3 6 3 3 3 9 10 8 7 3 3 6 1 3 14 5 3 5 4 6 4 12 9 12 7 7 11 1 7 7 8 8 3 1 2 6 10 7 2 12 12 11 3 3 7 10 13 15 9 1 1 10 4 8 5 6 5 4 5 6 4 5 12 5 6 9 11 5 5 6 5 8 5 6 6 5 4 4 4 3 3 4 5 6
4 12 18 15 8 6 9 4 2 11 16 12 9 4 8 9 5 3 2 4 3 7 4 8 9 11 8 18 14 12 13 4 2 10 5 9 0 1 3 8 5 6 3 7 11 7 3 5 9 10 9 6 6 6 8 14 11 11 8 7 7 7 5 6 9 12 4 3 12 13 7 6 11 5 6 9 9 5 6 6 7 7 5 4 4 3 4 4
7 6 8 5 13 20 14 11 9 14 11 7 3 3 7 11 10 11 1 2 4 3 10 2 13 16 22 21 14 10 9 4 5 11 4 1 5 0 5 3 4 4 1 3 5 6 7 10 5 5 5 4 4 8 11 10 13 13 14 13 11 11 9 11 12 13 7 10 19 11 4 9 7 6 10 12 9 6 8 9 5 2 1 3 3 5 6 6
1 3 2 2 4 2 9 16 22 17 17 12 2 6 10 16 14 9 5 4 6 5 7 10 13 14 20 16 16 11 17 9 5 3 7 6 7 6 4 3 0 3 3 3 3 1 5 5 4 6 5 3 2 6 7 10 6 5 10 15 16 14 16 18 19 16 14 14 15 8 8 17 10 9 13 13 7 6 4 2 1 4 6 6 5 5 7 7
4 12 8 3 6 10 16 17 6 9 13 10 4 7 10 16 18 6 1 10 9 7 0 12 14 12 15 15 14 13 18 20 18 13 4 14 4 3 6 5 6 1 2 5 5 1 5 5 8 5 4 4 4 2 5 8 7 7 8 10 13 15 17 20 18 16 12 13 15 10 10 18 10 8 9 5 3 0 1 3 6 9 5 6 7 8 7 9
1 2 1 11 7 9 12 10 11 13 11 7 5 5 5 12 14 10 3 3 13 14 10 18 15 14 12 16 14 16 18 11 13 17 15 17 15 8 10 4 8 9 4 4 2 0 3 3 1 4 6 4 2 5 8 6 2 4 7 11 14 15 14 10 9 6 6 14 16 13 13 19 2 4 7 9 6 3 5 8 8 7 7 7 9 9 10 12
2 2 2 7 4 9 15 13 10 10 13 14 8 6 5 10 5 7 6 4 5 2 6 15 17 17 9 14 18 17 12 11 13 14 18 15 13 10 2 12 17 16 10 10 2 8 7 7 6 5 7 5 1 1 5 5 2 5 13 20 17 11 11 8 9 9 15 16 12 12 21 7 5 9 11 8 3 6 10 9 8 5 5 9 11 12 13 13
Wind_Direction
214 216 207 205 199 198 194 186 187 185 184 173 179 177 171 170 172 172 171 166 162 159 152 149 145 142 138 134 136 136 116 107 116 87 137 260 138 134 121 122 124 86 77 87 75 67 42 30 16 336 358 25 325 3 276 7 102 53 183 120 232 195 156 214 168 188 218 145 207 179 215 127 136 195 171 69 38 74 66 69 342 25 20 198 308 145 149 151
215 210 215 205 200 196 198 192 185 183 178 176 178 181 173 169 169 169 169 163 159 153 153 147 146 143 137 138 135 128 97 91 154 165 198 145 131 136 134 129 138 117 83 58 110 95 95 32 12 344 19 350 328 294 349 264 53 137 124 116 225 177 236 155 218 204 130 224 179 178 172 159 176 137 201 104 165 127 71 9 24 60 28 70 112 136 145 151
214 218 198 207 200 199 200 196 187 179 177 175 173 175 176 167 166 166 166 162 160 155 153 146 144 145 144 139 140 127 101 53 68 206 169 152 139 134 136 129 129 121 107 127 84 117 122 135 50 8 14 353 347 286 17 282 329 240 129 249 247 210 245 220 192 226 234 157 154 156 197 152 180 138 169 140 166 158 156 152 336 111 132 126 132 141 152 158
217 213 200 191 198 194 200 196 184 178 171 167 170 170 169 166 163 164 162 160 161 156 153 150 150 148 149 149 146 138 84 88 221 188 161 158 142 137 129 114 111 107 98 81 107 99 110 101 92 76 36 46 305 331 22 276 79 276 124 199 228 208 349 253 166 228 237 202 167 168 129 146 197 188 128 146 111 231 239 211 163 177 160 154 154 153 158 164
214 212 208 199 196 196 196 188 182 175 171 170 169 170 166 164 163 163 159 160 160 156 155 153 152 152 153 157 162 113 95 102 252 159 169 157 145 142 137 132 121 102 105 123 94 86 95 100 103 77 87 191 317 343 256 312 183 117 217 211 213 188 193 261 268 266 161 19 144 131 143 198 115 66 138 156 165 202 205 207 212 163 162 154 159 165 161 169
216 209 205 196 194 194 196 186 175 172 174 174 170 167 168 165 162 162 159 158 159 156 155 154 153 156 158 161 145 122 136 194 226 181 162 157 154 147 144 138 125 121 119 102 108 120 101 53 100 87 75 94 297 43 281 338 322 265 301 259 237 212 236 290 343 323 142 137 155 161 193 104 158 183 188 173 184 228 206 182 176 166 168 167 157 156 166 172
213 206 196 196 190 189 193 187 180 179 178 177 172 166 165 162 163 160 160 159 157 155 155 153 154 158 160 133 132 143 190 252 148 198 162 156 151 147 141 128 123 128 117 107 121 123 131 115 99 137 108 75 282 332 319 333 312 255 258 331 300 181 210 300 285 353 173 160 190 185 121 147 160 172 196 192 234 231 223 175 164 164 143 143 152 171 171 177
213 206 197 200 195 192 198 188 181 183 175 171 169 165 162 161 159 159 159 158 155 155 153 154 156 158 145 124 127 188 178 237 113 242 169 154 147 142 133 130 131 133 135 140 140 133 136 131 138 144 90 161 203 58 336 333 297 223 268 251 257 120 257 302 301 35 151 184 350 143 147 188 169 177 116 222 233 227 229 133 133 141 148 160 163 173 179 180
209 198 192 188 190 191 199 186 176 171 177 172 166 165 162 160 157 157 158 155 154 153 154 153 158 161 156 122 137 130 223 77 266 162 159 157 142 133 130 125 160 141 137 132 148 153 131 203 97 204 185 167 306 270 20 4 316 193 239 243 290 261 281 306 325 14 119 105 134 121 196 198 220 309 185 210 224 227 114 136 143 146 155 169 178 177 177 183
204 195 199 193 188 192 192 174 185 176 174 171 168 164 161 158 156 155 157 155 153 153 154 154 155 162 143 128 114 188 225 278 35 134 143 148 143 139 149 149 163 140 128 143 137 163 166 176 151 149 102 59 4 207 351 289 245 337 301 263 227 229 163 48 207 294 313 144 186 154 204 222 332 59 237 235 213 119 114 140 153 154 168 178 179 183 186 184
202 192 195 196 191 191 190 178 179 173 171 170 168 166 160 155 151 153 154 153 152 154 154 155 158 152 156 153 154 195 334 27 24 127 143 148 145 146 150 155 165 150 140 150 150 164 123 119 138 117 55 192 108 274 15 255 301 305 288 293 316 331 243 275 72 295 82 108 149 134 138 310 320 52 229 210 190 153 135 151 161 169 173 180 184 187 191 195
198 192 191 189 182 178 182 181 173 163 166 166 165 164 156 152 151 151 150 149 151 152 153 156 160 143 90 148 174 184 332 8 132 135 140 156 160 162 154 158 168 154 149 138 127 122 126 136 148 134 168 120 211 19 301 290 312 294 284 228 274 351 267 236 179 234 291 204 151 149 77 307 262 226 236 210 148 163 151 160 170 178 181 182 185 190 192 201
195 193 190 181 177 178 173 178 171 164 163 165 164 160 154 151 151 148 146 144 148 145 151 151 130 145 132 142 213 283 308 322 115 126 124 116 88 57 104 139 162 163 175 128 134 136 116 120 132 88 129 122 130 159 276 316 299 307 270 188 8 329 295 252 138 95 143 263 166 154 196 244 232 234 256 255 150 141 145 163 181 184 182 188 188 193 203 203
191 192 187 180 176 177 175 175 173 170 168 165 159 155 153 151 149 147 147 146 144 141 126 97 62 140 157 164 88 280 313 88 106 132 145 141 115 80 109 78 79 75 80 103 107 125 107 106 96 97 79 102 180 346 339 310 282 242 256 150 198 148 251 269 172 155 166 166 157 102 205 266 256 244 234 185 164 156 175 185 187 189 190 189 195 199 204 209
188 189 184 178 175 178 175 174 170 165 165 162 156 154 152 151 147 144 141 140 135 135 123 74 57 109 163 246 34 298 319 120 145 169 164 147 127 107 142 138 101 106 116 113 119 132 126 119 104 95 96 203 81 49 314 312 306 273 156 231 273 165 274 292 292 157 176 268 86 128 250 238 258 249 228 178 175 171 179 192 193 193 194 195 197 204 209 212
184 185 180 177 177 178 175 170 164 161 162 160 157 150 147 145 143 140 139 137 129 127 124 131 46 97 105 171 223 52 113 143 193 178 243 147 150 150 152 137 125 107 105 47 95 69 52 90 89 166 117 52 59 76 302 315 298 292 205 286 209 151 232 0 222 207 175 128 346 178 212 319 281 272 274 187 170 187 181 195 202 203 201 199 201 205 210 213
180 180 177 174 175 180 175 168 162 160 157 157 153 148 143 139 138 133 132 120 115 79 123 145 110 100 160 336 106 177 184 193 133 144 182 104 123 135 128 135 113 99 91 76 81 78 9 78 235 71 8 122 110 99 235 274 268 275 5 206 208 175 212 251 302 265 231 149 200 229 207 237 230 299 295 191 181 179 191 197 206 207 204 205 204 207 209 211
177 177 171 168 169 173 168 165 160 157 156 151 148 144 138 136 133 127 116 108 87 86 80 29 102 121 279 109 199 197 125 124 155 163 139 245 140 146 144 127 118 117 110 96 110 120 331 71 143 162 128 166 146 179 185 208 204 223 213 234 267 324 202 201 160 233 135 261 190 204 241 261 271 293 278 214 188 184 205 201 202 205 207 209 208 209 214 214
174 172 166 165 165 163 161 155 157 160 150 148 144 139 133 130 123 103 124 129 119 102 141 201 160 193 197 197 157 106 141 137 111 139 164 124 166 123 74 94 132 133 131 133 198 126 108 77 77 133 187 188 188 190 199 233 190 206 181 189 175 171 221 223 235 265 172 176 215 191 213 235 252 254 256 242 195 195 220 232 238 226 220 218 213 216 213 216
172 168 164 161 163 161 160 153 152 159 152 144 139 137 127 138 128 133 133 164 171 160 342 179 176 71 46 126 156 110 85 125 128 193 138 155 135 127 124 141 134 128 142 156 150 176 136 163 188 197 192 183 175 193 210 244 263 274 333 321 223 203 270 275 261 254 189 135 220 205 223 235 245 239 229 218 158 248 250 236 225 220 213 214 218 216 216 217
170 167 162 160 162 160 156 151 147 152 158 147 147 149 161 161 146 162 165 189 157 84 119 160 190 136 131 129 117 136 134 176 158 160 176 151 145 130 165 136 144 137 171 147 141 165 148 188 214 197 174 181 182 194 230 250 255 247 273 289 286 249 236 232 212 351 272 171 243 212 228 247 249 264 256 180 167 237 226 226 232 227 219 216 214 219 218 222
171 166 161 160 161 159 156 150 145 149 160 163 154 158 160 157 357 150 133 140 146 50 4 166 203 34 80 136 158 135 89 110 115 161 205 142 168 149 198 149 158 159 139 132 105 137 195 212 187 147 159 170 203 215 252 246 258 229 216 246 272 261 246 288 284 271 295 144 266 128 213 246 251 244 248 166 205 230 223 209 215 211 220 222 220 224 225 228
166 164 161 160 162 159 158 149 145 147 153 168 169 141 158 184 123 116 98 91 90 21 57 171 168 105 117 106 177 145 137 162 165 181 180 173 164 172 154 152 165 149 150 162 160 154 195 225 181 165 171 189 210 235 260 273 272 242 238 231 230 241 155 266 289 148 279 142 253 176 197 262 268 259 252 228 209 238 230 219 232 214 214 215 215 208 211 220
163 162 160 159 160 160 157 148 142 141 165 175 162 147 138 148 129 129 105 99 141 115 168 187 95 157 153 143 202 157 151 163 142 174 181 163 167 164 155 166 149 151 174 179 176 180 184 111 161 183 195 196 200 214 230 238 251 233 221 222 246 221 233 199 229 131 289 349 93 89 339 295 248 260 273 255 228 244 251 237 249 253 244 242 270 264 225 213
162 162 158 157 159 154 155 138 146 162 157 144 78 164 163 152 144 132 102 104 41 11 100 106 30 333 185 330 129 161 48 58 180 167 170 171 145 135 182 146 139 178 170 174 168 190 222 216 164 183 197 199 201 205 223 214 238 257 231 211 226 233 229 256 154 119 66 285 248 160 300 266 268 242 235 247 243 238 236 221 235 236 239 232 234 233 231 238
163 159 156 156 154 151 143 141 162 153 150 158 159 164 167 161 153 133 107 81 120 183 132 191 139 246 173 152 149 126 119 180 195 180 163 192 144 150 136 171 145 174 173 168 170 206 199 180 172 180 187 198 201 210 216 207 216 220 250 204 226 225 206 149 162 110 180 197 281 144 201 267 325 256 232 231 234 243 278 223 237 236 238 225 228 230 225 221
168 153 155 153 152 148 146 156 145 143 152 159 161 166 178 168 159 157 93 51 122 193 162 103 158 160 149 194 152 136 153 188 53 102 167 288 169 295 148 164 116 144 167 159 184 226 185 177 182 185 183 188 194 205 212 199 190 235 256 226 215 165 155 187 173 186 210 269 320 42 152 216 271 267 247 286 233 254 259 249 249 245 240 230 230 229 224 224
163 153 153 151 154 161 164 137 148 164 162 154 158 164 162 189 94 50 85 131 217 123 192 193 224 79 157 149 157 165 300 125 125 209 227 216 95 142 165 177 171 166 172 171 191 188 174 184 180 195 197 189 203 193 192 195 196 217 229 166 201 194 195 175 174 181 187 145 255 296 255 213 258 268 304 152 260 267 255 239 241 239 236 234 232 230 226 223
162 154 155 154 158 138 105 146 155 157 125 139 145 141 171 93 74 141 130 164 93 121 99 134 62 146 90 130 184 6 123 168 166 160 159 20 283 142 169 194 166 166 180 181 176 189 272 183 186 184 189 204 179 167 198 182 193 257 132 98 72 54 61 121 155 139 59 133 243 224 183 205 277 276 321 337 229 256 258 242 232 229 229 229 232 235 230 230
160 157 154 151 127 113 125 123 123 126 140 136 135 136 110 67 116 168 158 217 142 162 179 141 173 171 161 168 170 161 143 301 74 120 151 168 207 32 26 134 143 154 185 193 189 193 187 349 345 159 194 180 171 180 187 201 217 77 122 87 23 38 41 28 75 106 81 246 246 236 250 173 280 255 210 185 220 201 237 263 264 248 243 240 230 227 222 220
156 155 151 152 148 144 130 137 141 141 134 134 142 138 133 37 158 146 178 170 120 93 79 153 157 140 160 162 161 233 119 109 140 144 164 172 171 35 129 82 38 77 45 111 194 338 25 13 133 233 72 95 143 138 21 152 171 147 180 136 86 333 18 28 333 41 186 256 262 252 205 159 208 289 272 238 271 235 227 247 255 250 232 232 228 225 221 214
153 152 150 155 127 145 146 153 149 144 144 141 140 154 153 133 349 178 158 140 151 192 166 159 181 158 171 177 148 157 151 108 164 162 167 178 171 171 193 180 160 156 182 181 203 31 178 166 237 9 236 143 134 135 155 89 140 157 127 129 177 259 75 245 343 240 221 213 257 356 168 344 245 228 260 276 261 274 220 222 247 263 277 260 245 228 215 204
150 149 144 132 134 138 121 125 140 143 149 151 147 160 158 153 172 192 124 175 209 160 201 160 164 166 165 146 157 153 199 154 199 173 142 149 155 214 254 179 196 165 182 168 124 144 258 292 320 265 40 234 161 169 178 168 194 168 179 154 175 194 174 209 254 307 323 287 267 246 341 269 250 279 247 255 264 247 251 243 249 254 264 267 243 217 203 200
142 139 132 142 134 126 132 137 145 152 153 161 154 149 139 168 179 52 149 181 154 150 135 155 136 126 155 170 175 163 113 322 161 169 160 160 173 184 214 245 182 164 91 163 170 180 171 218 240 151 195 152 194 181 169 158 145 206 121 159 178 144 153 206 200 209 222 210 284 277 88 235 131 246 230 234 259 306 274 257 246 241 252 249 250 242 226 204
136 130 124 132 119 131 134 138 149 160 152 156 162 162 160 185 170 161 162 160 137 133 142 137 136 143 172 141 165 210 143 118 207 147 173 159 192 189 192 196 218 125 137 147 235 139 202 185 293 293 235 123 179 247 145 122 143 201 168 78 154 218 140 223 202 169 204 245 289 232 209 184 181 254 277 242 274 285 321 306 302 231 191 158 157 198 209 222
125 131 129 126 128 150 140 148 157 163 154 158 160 177 186 181 174 165 173 142 144 145 144 137 144 150 156 136 242 192 258 127 198 142 200 202 190 188 182 183 186 188 160 177 159 125 110 223 339 309 57 121 221 153 177 173 191 206 113 203 213 134 104 95 58 130 115 38 258 173 317 285 298 313 281 328 273 269 296 278 283 262 241 207 203 210 222 229
129 136 127 127 130 153 153 154 159 158 163 164 164 190 193 22 181 101 138 152 154 135 140 145 183 155 171 176 176 191 209 90 175 153 202 143 228 202 190 205 172 187 193 130 227 209 154 219 342 82 200 328 143 35 324 4 153 109 188 221 169 110 108 147 221 5 82 209 260 84 214 285 358 270 315 337 306 264 261 252 260 270 272 238 232 233 233 230
133 128 117 135 149 141 157 157 152 153 161 170 187 189 6 95 269 122 128 117 128 143 144 153 174 174 175 169 186 178 183 164 192 185 180 175 236 188 180 184 201 180 189 221 141 237 118 85 290 291 166 277 351 57 354 354 3 146 195 172 153 214 227 279 126 223 196 240 264 291 255 263 188 235 332 296 246 258 254 262 275 249 237 235 240 251 254 274
124 125 118 136 144 145 151 150 150 152 162 179 199 167 242 125 199 138 149 141 148 153 154 177 145 211 166 182 166 169 172 188 164 189 147 228 201 199 186 166 183 174 175 144 147 178 114 135 295 330 138 278 9 111 198 222 338 63 53 86 344 124 216 146 201 178 132 254 61 287 42 241 206 219 208 251 247 240 243 217 233 225 216 216 224 228 226 225
135 121 106 146 148 139 142 138 131 160 173 189 179 224 219 106 168 144 148 140 154 150 181 153 175 143 172 176 156 168 197 163 162 200 194 186 189 280 181 178 164 181 164 167 158 166 180 118 168 289 277 76 198 186 210 161 167 198 123 199 218 140 238 110 43 145 193 197 192 216 297 279 253 213 195 228 241 245 215 227 236 233 224 220 222 215 216 213
106 105 119 162 155 142 118 117 153 177 187 148 1 264 265 146 154 157 158 150 138 3 150 158 154 165 162 139 175 166 151 146 170 183 184 178 183 175 229 178 136 158 124 143 168 184 103 162 166 150 74 233 238 231 183 190 190 174 161 194 172 134 145 184 241 49 106 160 237 127 254 268 270 192 208 233 268 311 242 224 237 232 217 212 215 222 210 207
129 129 140 161 158 138 140 152 193 178 155 168 182 174 165 133 136 157 146 170 135 132 43 132 158 148 148 168 163 171 158 167 175 174 206 171 203 148 200 160 157 155 157 181 186 223 145 140 115 169 204 198 214 250 225 311 9 240 183 204 180 178 129 141 209 244 16 253 110 161 241 262 245 208 207 235 256 254 256 240 252 247 223 217 216 215 215 214
112 82 110 152 164 149 156 176 163 153 175 219 339 310 170 141 143 167 149 175 141 140 133 155 169 142 188 154 164 165 163 175 170 197 178 151 196 193 195 169 148 162 161 145 72 210 84 94 75 320 337 318 307 308 339 80 29 296 278 355 174 195 199 191 166 182 170 224 222 264 253 255 284 255 243 251 260 268 269 233 249 257 238 228 222 215 202 204
113 121 115 324 187 162 169 168 163 186 176 291 232 227 345 162 148 159 162 172 145 158 149 133 144 173 155 171 157 171 172 141 230 174 159 183 188 163 189 170 158 169 171 194 175 193 140 245 130 117 23 349 332 338 333 348 70 148 269 269 247 40 117 155 97 80 218 219 186 151 245 267 268 319 300 278 297 301 288 277 208 244 246 229 221 213 190 186
106 59 41 121 149 175 186 199 193 172 167 183 194 178 170 119 209 167 153 173 103 136 124 160 160 133 85 147 166 161 179 171 149 217 115 155 142 7 344 175 178 178 193 171 164 158 177 180 147 159 180 186 205 210 212 190 193 249 218 219 195 174 156 135 210 152 220 267 143 197 253 247 273 311 311 301 304 299 271 248 267 219 237 229 223 203 183 176
148 133 134 88 193 193 239 62 71 150 167 188 197 222 138 127 88 336 156 152 165 116 96 117 89 127 133 136 142 161 185 305 148 186 157 169 150 290 242 204 199 186 178 143 141 145 164 161 188 193 192 205 205 83 84 130 111 194 216 175 204 201 199 173 130 177 218 199 195 230 230 234 254 251 274 281 289 252 273 295 279 277 260 254 226 193 189 187
117 147 155 155 135 225 192 170 152 170 185 180 181 182 166 152 146 123 345 125 241 141 115 136 153 141 170 153 168 174 179 122 39 127 178 148 293 176 38 147 92 46 134 134 158 104 107 183 211 207 210 200 157 159 177 145 180 206 178 202 202 183 177 170 190 226 124 81 262 233 224 223 239 252 266 274 277 276 267 265 261 241 237 212 202 191 171 176
154 198 192 161 153 172 172 213 200 181 186 180 213 129 159 147 163 159 154 328 132 173 123 334 168 167 164 169 152 156 172 159 133 163 132 104 110 357 82 4 129 309 290 150 177 144 151 205 210 170 230 143 179 156 171 170 183 190 193 197 195 193 176 196 220 222 154 200 238 239 191 234 237 232 248 242 241 248 245 247 246 236 202 190 164 174 186 193
53 63 155 276 18 162 183 170 165 174 176 185 173 160 164 162 172 166 151 141 143 187 159 156 188 171 169 158 154 164 166 150 224 179 161 159 150 131 94 70 186 9 102 120 149 175 150 226 176 175 188 139 206 163 180 177 202 194 197 202 202 187 197 204 217 219 205 228 244 248 246 251 222 218 236 243 232 241 280 328 160 179 213 195 188 194 198 201
172 159 189 34 7 141 109 115 126 160 189 187 168 213 171 172 165 145 158 152 157 194 160 159 170 162 162 164 166 167 186 190 169 157 193 133 158 145 162 180 148 24 58 147 157 271 154 251 150 149 155 214 207 158 183 195 181 200 217 216 211 205 208 211 215 221 219 244 251 254 253 263 241 196 242 269 263 326 295 290 230 227 211 189 195 202 204 209
109 348 335 151 121 139 126 133 151 175 181 207 201 203 157 181 169 161 142 318 174 167 171 171 152 155 163 167 177 184 186 163 146 165 163 150 166 199 141 238 148 144 146 125 149 87 145 227 44 121 167 238 247 181 191 191 200 217 233 220 217 211 218 226 225 210 186 222 233 237 247 248 79 160 235 239 215 177 225 239 238 236 212 195 198 207 210 216
55 16 68 102 68 156 149 154 157 154 200 199 177 194 177 189 151 144 117 20 43 85 151 138 149 141 174 172 190 193 176 161 162 152 164 169 158 166 151 155 160 158 172 169 159 155 172 137 153 146 166 224 264 94 135 114 124 280 248 227 211 213 213 215 227 220 212 213 221 222 238 229 140 199 225 238 203 232 240 245 254 255 211 200 203 207 215 217